,,Stat6,,Stat2,,Stat8,,Stat9,,Stat10,,Wind1,,Wind1,
time,status,PA1M_AVG,status,PR1M_SUM,status,RH1M_AVG,status,SR1M_AVG,status,TA1M_AVG,status,W1dAve1m,status,W1sAve1m,
2008-02-11, 00:00:00,VALID,918.22,VALID,0,VALID,100,VALID,-0.0849042,VALID,19.3487,VALID,133,VALID,0,
2008-02-11, 00:01:00,VALID,918.214,VALID,0,VALID,100,VALID,-0.0849042,VALID,19.3716,VALID,145,VALID,0,
2008-02-11, 00:02:00,VALID,918.197,VALID,0,VALID,100,VALID,-0.0679233,VALID,19.3586,VALID,155,VALID,0,
2008-02-11, 00:03:00,VALID,918.181,VALID,0,VALID,100,VALID,-0.0849042,VALID,19.3684,VALID,162,VALID,0,
2008-02-11, 00:04:00,VALID,918.18,VALID,0,VALID,100,VALID,-0.0849042,VALID,19.3906,VALID,166,VALID,0,
2008-02-11, 00:05:00,VALID,918.165,VALID,0,VALID,100,VALID,-0.0679233,VALID,19.4041,VALID,163,VALID,0,
2008-02-11, 00:06:00,VALID,918.149,VALID,0,VALID,100,VALID,-0.0849042,VALID,19.4333,VALID,168,VALID,0,
2008-02-11, 00:07:00,VALID,918.138,VALID,0,VALID,100,VALID,-0.101885,VALID,19.4365,VALID,171,VALID,0,
2008-02-11, 00:08:00,VALID,918.131,VALID,0,VALID,100,VALID,-0.101885,VALID,19.4462,VALID,175,VALID,0,
2008-02-11, 00:09:00,VALID,918.124,VALID,0,VALID,100,VALID,-0.0679233,VALID,19.4457,VALID,181,VALID,0,
2008-02-11, 00:10:00,VALID,918.123,VALID,0,VALID,100,VALID,-0.0849042,VALID,19.4595,VALID,181,VALID,0,
2008-02-11, 00:11:00,VALID,918.124,VALID,0,VALID,100,VALID,-0.0679233,VALID,19.4622,VALID,181,VALID,0,
2008-02-11, 00:12:00,VALID,918.129,VALID,0,VALID,100,VALID,-0.0679233,VALID,19.4787,VALID,181,VALID,0,
2008-02-11, 00:13:00,VALID,918.131,VALID,0,VALID,100,VALID,-0.118866,VALID,19.4951,VALID,181,VALID,0,
2008-02-11, 00:14:00,VALID,918.127,VALID,0,VALID,100,VALID,-0.101885,VALID,19.5111,VALID,181,VALID,0,
2008-02-11, 00:15:00,VALID,918.128,VALID,0,VALID,100,VALID,-0.101885,VALID,19.5276,VALID,181,VALID,0,
2008-02-11, 00:16:00,VALID,918.13,VALID,0,VALID,100,VALID,-0.0849042,VALID,19.5273,VALID,181,VALID,0,
2008-02-11, 00:17:00,VALID,918.122,VALID,0,VALID,100,VALID,-0.0849042,VALID,19.5171,VALID,181,VALID,0,
2008-02-11, 00:18:00,VALID,918.116,VALID,0,VALID,100,VALID,-0.0849042,VALID,19.5243,VALID,181,VALID,0,
2008-02-11, 00:19:00,VALID,918.125,VALID,0,VALID,100,VALID,-0.101885,VALID,19.5211,VALID,181,VALID,0,
2008-02-11, 00:20:00,VALID,918.116,VALID,0,VALID,100,VALID,-0.0849042,VALID,19.5176,VALID,181,VALID,0,
2008-02-11, 00:21:00,VALID,918.129,VALID,0,VALID,100,VALID,-0.101885,VALID,19.5211,VALID,181,VALID,0,
2008-02-11, 00:22:00,VALID,918.112,VALID,0,VALID,100,VALID,-0.101885,VALID,19.5111,VALID,181,VALID,0,
2008-02-11, 00:23:00,VALID,918.129,VALID,0,VALID,100,VALID,-0.0849042,VALID,19.5049,VALID,181,VALID,0,
2008-02-11, 00:24:00,VALID,918.103,VALID,0,VALID,100,VALID,-0.0679233,VALID,19.4917,VALID,181,VALID,0,
2008-02-11, 00:25:00,VALID,918.1,VALID,0,VALID,100,VALID,-0.0339617,VALID,19.4819,VALID,181,VALID,0,
2008-02-11, 00:26:00,VALID,918.093,VALID,0,VALID,100,VALID,-0.0679233,VALID,19.4685,VALID,181,VALID,0,
2008-02-11, 00:27:00,VALID,918.098,VALID,0,VALID,100,VALID,-0.0679233,VALID,19.4492,VALID,181,VALID,0,
2008-02-11, 00:28:00,VALID,918.098,VALID,0,VALID,100,VALID,-0.0679233,VALID,19.4365,VALID,181,VALID,0,
2008-02-11, 00:29:00,VALID,918.097,VALID,0,VALID,100,VALID,-0.0849042,VALID,19.3943,VALID,181,VALID,0,
2008-02-11, 00:30:00,VALID,918.097,VALID,0,VALID,100,VALID,-0.101885,VALID,19.3586,VALID,181,VALID,0,
2008-02-11, 00:31:00,VALID,918.094,VALID,0,VALID,100,VALID,-0.0849042,VALID,19.3457,VALID,181,VALID,0,
2008-02-11, 00:32:00,VALID,918.08,VALID,0,VALID,100,VALID,-0.0849042,VALID,19.3392,VALID,181,VALID,0,
2008-02-11, 00:33:00,VALID,918.068,VALID,0,VALID,100,VALID,-0.101885,VALID,19.3327,VALID,181,VALID,0,
2008-02-11, 00:34:00,VALID,918.041,VALID,0,VALID,100,VALID,-0.0849042,VALID,19.3292,VALID,181,VALID,0,
2008-02-11, 00:35:00,VALID,918.021,VALID,0,VALID,100,VALID,-0.0849042,VALID,19.3097,VALID,181,VALID,0,
2008-02-11, 00:36:00,VALID,918.007,VALID,0,VALID,100,VALID,-0.101885,VALID,19.2775,VALID,181,VALID,0,
2008-02-11, 00:37:00,VALID,917.987,VALID,0,VALID,100,VALID,-0.118866,VALID,19.2516,VALID,170,VALID,0,
2008-02-11, 00:38:00,VALID,917.965,VALID,0,VALID,100,VALID,-0.101885,VALID,19.2483,VALID,110,VALID,0,
2008-02-11, 00:39:00,VALID,917.939,VALID,0,VALID,100,VALID,-0.0849042,VALID,19.2421,VALID,110,VALID,0,
2008-02-11, 00:40:00,VALID,917.929,VALID,0,VALID,100,VALID,-0.0849042,VALID,19.2122,VALID,110,VALID,0,
2008-02-11, 00:41:00,VALID,917.924,VALID,0,VALID,100,VALID,-0.0849042,VALID,19.1765,VALID,110,VALID,0,
2008-02-11, 00:42:00,VALID,917.916,VALID,0,VALID,100,VALID,-0.0679233,VALID,19.154,VALID,85,VALID,0.0796131,
2008-02-11, 00:43:00,VALID,917.894,VALID,0,VALID,100,VALID,0,VALID,19.1269,VALID,62,VALID,1.2582,
2008-02-11, 00:44:00,VALID,917.886,VALID,0,VALID,100,VALID,0,VALID,19.0847,VALID,59,VALID,1.13377,
2008-02-11, 00:45:00,VALID,917.868,VALID,0,VALID,100,VALID,0,VALID,19.0423,VALID,61,VALID,1.05114,
2008-02-11, 00:46:00,VALID,917.851,VALID,0,VALID,100,VALID,0,VALID,19.0166,VALID,63,VALID,1.04778,
2008-02-11, 00:47:00,VALID,917.843,VALID,0,VALID,100,VALID,0.0509425,VALID,18.9841,VALID,65,VALID,1.07604,
2008-02-11, 00:48:00,VALID,917.82,VALID,0,VALID,100,VALID,0,VALID,18.9776,VALID,72,VALID,0.988376,
2008-02-11, 00:49:00,VALID,917.803,VALID,0,VALID,100,VALID,0.0169808,VALID,18.9774,VALID,73,VALID,0.917302,
2008-02-11, 00:50:00,VALID,917.806,VALID,0,VALID,100,VALID,0,VALID,19.0036,VALID,86,VALID,0.786086,
2008-02-11, 00:51:00,VALID,917.804,VALID,0,VALID,100,VALID,0,VALID,19.0228,VALID,91,VALID,0.67133,
2008-02-11, 00:52:00,VALID,917.809,VALID,0,VALID,100,VALID,0,VALID,19.0428,VALID,93,VALID,0.113735,
2008-02-11, 00:53:00,VALID,917.816,VALID,0,VALID,100,VALID,0,VALID,19.0458,VALID,93,VALID,0,
2008-02-11, 00:54:00,VALID,917.817,VALID,0,VALID,100,VALID,0,VALID,19.049,VALID,93,VALID,0,
2008-02-11, 00:55:00,VALID,917.828,VALID,0,VALID,100,VALID,0,VALID,19.0587,VALID,93,VALID,0,
2008-02-11, 00:56:00,VALID,917.821,VALID,0,VALID,100,VALID,-0.0169808,VALID,19.062,VALID,93,VALID,0,
2008-02-11, 00:57:00,VALID,917.806,VALID,0,VALID,100,VALID,-0.0169808,VALID,19.0622,VALID,93,VALID,0,
2008-02-11, 00:58:00,VALID,917.803,VALID,0,VALID,100,VALID,-0.118866,VALID,19.0569,VALID,93,VALID,0,
2008-02-11, 00:59:00,VALID,917.785,VALID,0,VALID,100,VALID,-0.101885,VALID,19.0567,VALID,93,VALID,0,
2008-02-11, 01:00:00,VALID,917.782,VALID,0,VALID,100,VALID,-0.118866,VALID,19.0435,VALID,93,VALID,0,
2008-02-11, 01:01:00,VALID,917.777,VALID,0,VALID,100,VALID,0,VALID,19.0393,VALID,93,VALID,0,
2008-02-11, 01:02:00,VALID,917.77,VALID,0,VALID,100,VALID,0,VALID,19.0263,VALID,93,VALID,0,
2008-02-11, 01:03:00,VALID,917.756,VALID,0,VALID,100,VALID,0.0339617,VALID,19.0233,VALID,93,VALID,0,
2008-02-11, 01:04:00,VALID,917.754,VALID,0,VALID,100,VALID,0,VALID,19.0128,VALID,93,VALID,0,
2008-02-11, 01:05:00,VALID,917.747,VALID,0,VALID,100,VALID,0,VALID,19.0166,VALID,93,VALID,0,
2008-02-11, 01:06:00,VALID,917.739,VALID,0,VALID,100,VALID,0.0169808,VALID,19.0034,VALID,93,VALID,0,
2008-02-11, 01:07:00,VALID,917.728,VALID,0,VALID,100,VALID,-0.0169808,VALID,19.0198,VALID,93,VALID,0,
2008-02-11, 01:08:00,VALID,917.71,VALID,0,VALID,100,VALID,0,VALID,19.036,VALID,93,VALID,0,
2008-02-11, 01:09:00,VALID,917.7,VALID,0,VALID,100,VALID,-0.0169808,VALID,19.0395,VALID,93,VALID,0,
2008-02-11, 01:10:00,VALID,917.699,VALID,0,VALID,100,VALID,0.0169808,VALID,19.062,VALID,93,VALID,0,
2008-02-11, 01:11:00,VALID,917.676,VALID,0,VALID,100,VALID,0.0339617,VALID,19.084,VALID,93,VALID,0,
2008-02-11, 01:12:00,VALID,917.669,VALID,0,VALID,100,VALID,0.0339617,VALID,19.1039,VALID,93,VALID,0,
2008-02-11, 01:13:00,VALID,917.672,VALID,0,VALID,100,VALID,-0.0169808,VALID,19.1074,VALID,93,VALID,0,
2008-02-11, 01:14:00,VALID,917.662,VALID,0,VALID,100,VALID,0,VALID,19.0877,VALID,93,VALID,0,
2008-02-11, 01:15:00,VALID,917.651,VALID,0,VALID,100,VALID,0,VALID,19.078,VALID,93,VALID,0,
2008-02-11, 01:16:00,VALID,917.653,VALID,0,VALID,100,VALID,0.0339617,VALID,19.0617,VALID,93,VALID,0,
2008-02-11, 01:17:00,VALID,917.646,VALID,0,VALID,100,VALID,0.0339617,VALID,19.065,VALID,107,VALID,0,
2008-02-11, 01:18:00,VALID,917.627,VALID,0,VALID,100,VALID,0,VALID,19.075,VALID,117,VALID,0,
2008-02-11, 01:19:00,VALID,917.595,VALID,0,VALID,100,VALID,0,VALID,19.081,VALID,117,VALID,0,
2008-02-11, 01:20:00,VALID,917.57,VALID,0,VALID,100,VALID,0.0169808,VALID,19.0745,VALID,117,VALID,0,
2008-02-11, 01:21:00,VALID,917.544,VALID,0,VALID,100,VALID,0,VALID,19.0807,VALID,117,VALID,0,
2008-02-11, 01:22:00,VALID,917.516,VALID,0,VALID,100,VALID,0,VALID,19.0909,VALID,117,VALID,0,
2008-02-11, 01:23:00,VALID,917.509,VALID,0,VALID,100,VALID,0.0339617,VALID,19.1169,VALID,117,VALID,0,
2008-02-11, 01:24:00,VALID,917.487,VALID,0,VALID,100,VALID,0.0169808,VALID,19.1329,VALID,117,VALID,0.654948,
2008-02-11, 01:25:00,VALID,917.476,VALID,0,VALID,100,VALID,0,VALID,19.1321,VALID,117,VALID,0.725229,
2008-02-11, 01:26:00,VALID,917.464,VALID,0,VALID,100,VALID,0.0339617,VALID,19.1588,VALID,133,VALID,0.827217,
2008-02-11, 01:27:00,VALID,917.446,VALID,0,VALID,100,VALID,0,VALID,19.1625,VALID,141,VALID,0.938262,
2008-02-11, 01:28:00,VALID,917.437,VALID,0,VALID,100,VALID,-0.118866,VALID,19.1505,VALID,141,VALID,0.346413,
2008-02-11, 01:29:00,VALID,917.419,VALID,0,VALID,100,VALID,-0.0849042,VALID,19.1338,VALID,141,VALID,0,
2008-02-11, 01:30:00,VALID,917.396,VALID,0,VALID,100,VALID,-0.101885,VALID,19.1276,VALID,141,VALID,0,
2008-02-11, 01:31:00,VALID,917.383,VALID,0,VALID,100,VALID,-0.101885,VALID,19.1313,VALID,141,VALID,0,
2008-02-11, 01:32:00,VALID,917.378,VALID,0,VALID,100,VALID,-0.101885,VALID,19.1148,VALID,140,VALID,0,
2008-02-11, 01:33:00,VALID,917.363,VALID,0,VALID,100,VALID,-0.118866,VALID,19.1151,VALID,140,VALID,0,
2008-02-11, 01:34:00,VALID,917.346,VALID,0,VALID,100,VALID,-0.0849042,VALID,19.1251,VALID,144,VALID,0,
2008-02-11, 01:35:00,VALID,917.339,VALID,0,VALID,100,VALID,-0.101885,VALID,19.138,VALID,148,VALID,0.0354421,
2008-02-11, 01:36:00,VALID,917.326,VALID,0,VALID,100,VALID,-0.101885,VALID,19.1343,VALID,141,VALID,0.967014,
2008-02-11, 01:37:00,VALID,917.336,VALID,0,VALID,100,VALID,-0.118866,VALID,19.1278,VALID,140,VALID,1.02653,
2008-02-11, 01:38:00,VALID,917.342,VALID,0,VALID,100,VALID,-0.101885,VALID,19.1376,VALID,139,VALID,0.712462,
2008-02-11, 01:39:00,VALID,917.33,VALID,0,VALID,100,VALID,-0.101885,VALID,19.1508,VALID,136,VALID,0.848133,
2008-02-11, 01:40:00,VALID,917.326,VALID,0,VALID,100,VALID,-0.0849042,VALID,19.1737,VALID,134,VALID,0.867001,
2008-02-11, 01:41:00,VALID,917.301,VALID,0,VALID,100,VALID,-0.135847,VALID,19.1737,VALID,131,VALID,0.882813,
2008-02-11, 01:42:00,VALID,917.275,VALID,0,VALID,100,VALID,-0.0679233,VALID,19.1927,VALID,131,VALID,0.678571,
2008-02-11, 01:43:00,VALID,917.256,VALID,0,VALID,100,VALID,0.0169808,VALID,19.1915,VALID,133,VALID,0.835366,
2008-02-11, 01:44:00,VALID,917.23,VALID,0,VALID,100,VALID,0.0169808,VALID,19.188,VALID,123,VALID,0.586554,
2008-02-11, 01:45:00,VALID,917.216,VALID,0,VALID,100,VALID,0,VALID,19.201,VALID,123,VALID,0.789063,
2008-02-11, 01:46:00,VALID,917.2,VALID,0,VALID,100,VALID,0.0169808,VALID,19.208,VALID,119,VALID,0.815234,
2008-02-11, 01:47:00,VALID,917.197,VALID,0,VALID,100,VALID,0.0169808,VALID,19.1915,VALID,119,VALID,0.827398,
2008-02-11, 01:48:00,VALID,917.198,VALID,0,VALID,100,VALID,0,VALID,19.1912,VALID,134,VALID,0.597222,
2008-02-11, 01:49:00,VALID,917.192,VALID,0,VALID,100,VALID,0,VALID,19.2047,VALID,148,VALID,0.48274,
2008-02-11, 01:50:00,VALID,917.186,VALID,0,VALID,100,VALID,-0.0169808,VALID,19.2177,VALID,180,VALID,0.0707031,
2008-02-11, 01:51:00,VALID,917.193,VALID,0,VALID,100,VALID,-0.0169808,VALID,19.217,VALID,180,VALID,0.267113,
2008-02-11, 01:52:00,VALID,917.179,VALID,0,VALID,100,VALID,0,VALID,19.2137,VALID,180,VALID,0.687691,
2008-02-11, 01:53:00,VALID,917.178,VALID,0,VALID,100,VALID,0,VALID,19.2142,VALID,171,VALID,0.89234,
2008-02-11, 01:54:00,VALID,917.181,VALID,0,VALID,100,VALID,0,VALID,19.2045,VALID,169,VALID,0.90282,
2008-02-11, 01:55:00,VALID,917.171,VALID,0,VALID,100,VALID,0,VALID,19.1848,VALID,169,VALID,0.574751,
2008-02-11, 01:56:00,VALID,917.162,VALID,0,VALID,100,VALID,0,VALID,19.1755,VALID,169,VALID,0.378997,
2008-02-11, 01:57:00,VALID,917.151,VALID,0,VALID,100,VALID,0,VALID,19.1623,VALID,169,VALID,0.0889863,
2008-02-11, 01:58:00,VALID,917.153,VALID,0,VALID,100,VALID,-0.0169808,VALID,19.1426,VALID,169,VALID,0.145579,
2008-02-11, 01:59:00,VALID,917.154,VALID,0,VALID,100,VALID,0.0169808,VALID,19.1261,VALID,169,VALID,0,
2008-02-11, 02:00:00,VALID,917.165,VALID,0,VALID,100,VALID,0,VALID,19.1234,VALID,169,VALID,0,
2008-02-11, 02:01:00,VALID,917.157,VALID,0,VALID,100,VALID,0.0169808,VALID,19.1067,VALID,169,VALID,0,
2008-02-11, 02:02:00,VALID,917.163,VALID,0,VALID,100,VALID,0.0169808,VALID,19.1034,VALID,169,VALID,0,
2008-02-11, 02:03:00,VALID,917.144,VALID,0,VALID,100,VALID,-0.0169808,VALID,19.1134,VALID,169,VALID,0,
2008-02-11, 02:04:00,VALID,917.147,VALID,0,VALID,100,VALID,0.0169808,VALID,19.1194,VALID,169,VALID,0,
2008-02-11, 02:05:00,VALID,917.132,VALID,0,VALID,100,VALID,0.0169808,VALID,19.1229,VALID,169,VALID,0,
2008-02-11, 02:06:00,VALID,917.121,VALID,0,VALID,100,VALID,0.0339617,VALID,19.1264,VALID,169,VALID,0,
2008-02-11, 02:07:00,VALID,917.098,VALID,0,VALID,100,VALID,-0.0169808,VALID,19.1329,VALID,169,VALID,0,
2008-02-11, 02:08:00,VALID,917.098,VALID,0,VALID,100,VALID,0.0169808,VALID,19.1426,VALID,169,VALID,0,
2008-02-11, 02:09:00,VALID,917.081,VALID,0,VALID,100,VALID,0.0339617,VALID,19.1655,VALID,169,VALID,0,
2008-02-11, 02:10:00,VALID,917.074,VALID,0,VALID,100,VALID,0,VALID,19.1653,VALID,169,VALID,0,
2008-02-11, 02:11:00,VALID,917.073,VALID,0,VALID,100,VALID,-0.0169808,VALID,19.1848,VALID,169,VALID,0,
2008-02-11, 02:12:00,VALID,917.066,VALID,0,VALID,100,VALID,0,VALID,19.194,VALID,137,VALID,0,
2008-02-11, 02:13:00,VALID,917.07,VALID,0,VALID,100,VALID,0,VALID,19.1688,VALID,122,VALID,0,
2008-02-11, 02:14:00,VALID,917.06,VALID,0,VALID,100,VALID,0,VALID,19.1064,VALID,73,VALID,0.504573,
2008-02-11, 02:15:00,VALID,917.06,VALID,0,VALID,100,VALID,0.0169808,VALID,19.1039,VALID,50,VALID,0.349254,
2008-02-11, 02:16:00,VALID,917.036,VALID,0,VALID,100,VALID,0,VALID,19.0939,VALID,50,VALID,0.521949,
2008-02-11, 02:17:00,VALID,917.026,VALID,0,VALID,100,VALID,0.0339617,VALID,19.0967,VALID,48,VALID,0.112424,
2008-02-11, 02:18:00,VALID,917.004,VALID,0,VALID,100,VALID,0.0169808,VALID,19.1132,VALID,45,VALID,0,
2008-02-11, 02:19:00,VALID,916.992,VALID,0,VALID,100,VALID,0,VALID,19.1164,VALID,45,VALID,0,
2008-02-11, 02:20:00,VALID,916.982,VALID,0,VALID,100,VALID,0.0169808,VALID,19.1261,VALID,45,VALID,0,
2008-02-11, 02:21:00,VALID,916.954,VALID,0,VALID,100,VALID,0.0169808,VALID,19.1393,VALID,41,VALID,0,
2008-02-11, 02:22:00,VALID,916.946,VALID,0,VALID,100,VALID,0.0339617,VALID,19.1389,VALID,35,VALID,0,
2008-02-11, 02:23:00,VALID,916.924,VALID,0,VALID,100,VALID,0.0169808,VALID,19.1458,VALID,35,VALID,0,
2008-02-11, 02:24:00,VALID,916.916,VALID,0,VALID,100,VALID,0.0339617,VALID,19.1493,VALID,35,VALID,0,
2008-02-11, 02:25:00,VALID,916.921,VALID,0,VALID,100,VALID,0,VALID,19.1493,VALID,35,VALID,0,
2008-02-11, 02:26:00,VALID,916.925,VALID,0,VALID,100,VALID,0.0169808,VALID,19.1458,VALID,35,VALID,0,
2008-02-11, 02:27:00,VALID,916.921,VALID,0,VALID,100,VALID,0,VALID,19.1201,VALID,35,VALID,0,
2008-02-11, 02:28:00,VALID,916.919,VALID,0,VALID,100,VALID,-0.0339617,VALID,19.0817,VALID,35,VALID,0,
2008-02-11, 02:29:00,VALID,916.931,VALID,0,VALID,100,VALID,-0.0339617,VALID,19.0652,VALID,35,VALID,0,
2008-02-11, 02:30:00,VALID,916.956,VALID,0,VALID,100,VALID,-0.0509425,VALID,19.0365,VALID,35,VALID,0,
2008-02-11, 02:31:00,VALID,916.961,VALID,0,VALID,100,VALID,-0.0509425,VALID,18.9941,VALID,35,VALID,0,
2008-02-11, 02:32:00,VALID,916.983,VALID,0,VALID,100,VALID,-0.0849042,VALID,18.9659,VALID,35,VALID,0,
2008-02-11, 02:33:00,VALID,917,VALID,0,VALID,100,VALID,-0.0509425,VALID,18.9492,VALID,35,VALID,0,
2008-02-11, 02:34:00,VALID,917.007,VALID,0,VALID,100,VALID,-0.0509425,VALID,18.9387,VALID,35,VALID,0,
2008-02-11, 02:35:00,VALID,917,VALID,0,VALID,100,VALID,-0.0509425,VALID,18.9262,VALID,35,VALID,0,
2008-02-11, 02:36:00,VALID,916.993,VALID,0,VALID,100,VALID,-0.0679233,VALID,18.8838,VALID,110,VALID,0.301258,
2008-02-11, 02:37:00,VALID,916.976,VALID,0,VALID,100,VALID,-0.0509425,VALID,18.8711,VALID,189,VALID,0.341273,
2008-02-11, 02:38:00,VALID,916.954,VALID,0,VALID,100,VALID,-0.0679233,VALID,18.8546,VALID,188,VALID,0,
2008-02-11, 02:39:00,VALID,916.931,VALID,0,VALID,100,VALID,-0.0509425,VALID,18.8252,VALID,187,VALID,0.361914,
2008-02-11, 02:40:00,VALID,916.92,VALID,0,VALID,100,VALID,-0.0509425,VALID,18.8222,VALID,182,VALID,0.585547,
2008-02-11, 02:41:00,VALID,916.907,VALID,0,VALID,100,VALID,-0.0169808,VALID,18.8164,VALID,175,VALID,0.464753,
2008-02-11, 02:42:00,VALID,916.876,VALID,0,VALID,100,VALID,-0.0339617,VALID,18.8065,VALID,154,VALID,0.193444,
2008-02-11, 02:43:00,VALID,916.872,VALID,0,VALID,100,VALID,-0.0849042,VALID,18.78,VALID,154,VALID,0,
2008-02-11, 02:44:00,VALID,916.864,VALID,0,VALID,100,VALID,-0.0169808,VALID,18.7701,VALID,156,VALID,0,
2008-02-11, 02:45:00,VALID,916.87,VALID,0,VALID,100,VALID,-0.0339617,VALID,18.7833,VALID,156,VALID,0.0850694,
2008-02-11, 02:46:00,VALID,916.872,VALID,0,VALID,100,VALID,-0.0169808,VALID,18.7803,VALID,156,VALID,0.00497159,
2008-02-11, 02:47:00,VALID,916.868,VALID,0,VALID,100,VALID,-0.0339617,VALID,18.7865,VALID,157,VALID,0.0418527,
2008-02-11, 02:48:00,VALID,916.87,VALID,0,VALID,100,VALID,-0.0509425,VALID,18.783,VALID,160,VALID,0,
2008-02-11, 02:49:00,VALID,916.882,VALID,0,VALID,100,VALID,-0.0849042,VALID,18.7868,VALID,160,VALID,0,
2008-02-11, 02:50:00,VALID,916.864,VALID,0,VALID,100,VALID,-0.0679233,VALID,18.7833,VALID,160,VALID,0,
2008-02-11, 02:51:00,VALID,916.859,VALID,0,VALID,100,VALID,-0.101885,VALID,18.7935,VALID,160,VALID,0,
2008-02-11, 02:52:00,VALID,916.841,VALID,0,VALID,100,VALID,-0.0679233,VALID,18.78,VALID,160,VALID,0,
2008-02-11, 02:53:00,VALID,916.832,VALID,0,VALID,100,VALID,-0.0169808,VALID,18.7701,VALID,160,VALID,0,
2008-02-11, 02:54:00,VALID,916.812,VALID,0,VALID,100,VALID,-0.0169808,VALID,18.7735,VALID,160,VALID,0,
2008-02-11, 02:55:00,VALID,916.798,VALID,0,VALID,100,VALID,-0.0169808,VALID,18.7703,VALID,160,VALID,0,
2008-02-11, 02:56:00,VALID,916.791,VALID,0,VALID,100,VALID,-0.0509425,VALID,18.7538,VALID,160,VALID,0,
2008-02-11, 02:57:00,VALID,916.774,VALID,0,VALID,100,VALID,-0.0509425,VALID,18.7346,VALID,160,VALID,0,
2008-02-11, 02:58:00,VALID,916.769,VALID,0,VALID,100,VALID,-0.0339617,VALID,18.7117,VALID,130,VALID,0,
2008-02-11, 02:59:00,VALID,916.764,VALID,0,VALID,100,VALID,-0.0169808,VALID,18.654,VALID,114,VALID,0,
2008-02-11, 03:00:00,VALID,916.744,VALID,0,VALID,100,VALID,0,VALID,18.6111,VALID,107,VALID,0,
2008-02-11, 03:01:00,VALID,916.734,VALID,0,VALID,100,VALID,-0.0679233,VALID,18.6149,VALID,107,VALID,0,
2008-02-11, 03:02:00,VALID,916.727,VALID,0,VALID,100,VALID,-0.0679233,VALID,18.6216,VALID,107,VALID,0,
2008-02-11, 03:03:00,VALID,916.713,VALID,0,VALID,100,VALID,-0.0339617,VALID,18.6276,VALID,107,VALID,0,
2008-02-11, 03:04:00,VALID,916.684,VALID,0,VALID,100,VALID,0,VALID,18.6174,VALID,107,VALID,0,
2008-02-11, 03:05:00,VALID,916.672,VALID,0,VALID,100,VALID,-0.0509425,VALID,18.6243,VALID,107,VALID,0,
2008-02-11, 03:06:00,VALID,916.654,VALID,0,VALID,100,VALID,-0.0339617,VALID,18.6241,VALID,118,VALID,0.737614,
2008-02-11, 03:07:00,VALID,916.637,VALID,0,VALID,100,VALID,-0.0169808,VALID,18.6341,VALID,111,VALID,0.788872,
2008-02-11, 03:08:00,VALID,916.635,VALID,0,VALID,100,VALID,-0.0169808,VALID,18.6373,VALID,117,VALID,0.864901,
2008-02-11, 03:09:00,VALID,916.626,VALID,0,VALID,100,VALID,-0.0339617,VALID,18.6243,VALID,118,VALID,0.676153,
2008-02-11, 03:10:00,VALID,916.641,VALID,0,VALID,100,VALID,-0.0509425,VALID,18.6049,VALID,134,VALID,1.03535,
2008-02-11, 03:11:00,VALID,916.653,VALID,0,VALID,100,VALID,-0.0509425,VALID,18.6274,VALID,134,VALID,1.1995,
2008-02-11, 03:12:00,VALID,916.663,VALID,0,VALID,100,VALID,-0.0169808,VALID,18.6695,VALID,148,VALID,0.900618,
2008-02-11, 03:13:00,VALID,916.667,VALID,0,VALID,100,VALID,-0.0169808,VALID,18.6892,VALID,157,VALID,0.681504,
2008-02-11, 03:14:00,VALID,916.674,VALID,0,VALID,100,VALID,-0.0509425,VALID,18.7087,VALID,169,VALID,0.668826,
2008-02-11, 03:15:00,VALID,916.684,VALID,0,VALID,100,VALID,-0.0509425,VALID,18.7314,VALID,169,VALID,0.201265,
2008-02-11, 03:16:00,VALID,916.669,VALID,0,VALID,100,VALID,0,VALID,18.7506,VALID,169,VALID,0,
2008-02-11, 03:17:00,VALID,916.677,VALID,0,VALID,100,VALID,-0.0339617,VALID,18.7571,VALID,169,VALID,0,
2008-02-11, 03:18:00,VALID,916.669,VALID,0,VALID,100,VALID,-0.0509425,VALID,18.7638,VALID,169,VALID,0,
2008-02-11, 03:19:00,VALID,916.656,VALID,0,VALID,100,VALID,-0.0339617,VALID,18.777,VALID,169,VALID,0,
2008-02-11, 03:20:00,VALID,916.636,VALID,0,VALID,100,VALID,0,VALID,18.7895,VALID,169,VALID,0,
2008-02-11, 03:21:00,VALID,916.63,VALID,0,VALID,100,VALID,-0.0169808,VALID,18.8057,VALID,169,VALID,0,
2008-02-11, 03:22:00,VALID,916.62,VALID,0,VALID,100,VALID,-0.0169808,VALID,18.812,VALID,165,VALID,0,
2008-02-11, 03:23:00,VALID,916.603,VALID,0,VALID,100,VALID,-0.0169808,VALID,18.812,VALID,157,VALID,0,
2008-02-11, 03:24:00,VALID,916.599,VALID,0,VALID,100,VALID,-0.0339617,VALID,18.8252,VALID,160,VALID,0.548921,
2008-02-11, 03:25:00,VALID,916.593,VALID,0,VALID,100,VALID,-0.0169808,VALID,18.8284,VALID,161,VALID,0.697129,
2008-02-11, 03:26:00,VALID,916.594,VALID,0,VALID,100,VALID,-0.0169808,VALID,18.8511,VALID,162,VALID,0.43843,
2008-02-11, 03:27:00,VALID,916.599,VALID,0,VALID,100,VALID,-0.0169808,VALID,18.8639,VALID,170,VALID,0.217708,
2008-02-11, 03:28:00,VALID,916.599,VALID,0,VALID,100,VALID,-0.0679233,VALID,18.8771,VALID,176,VALID,0.333031,
2008-02-11, 03:29:00,VALID,916.606,VALID,0,VALID,100,VALID,-0.0509425,VALID,18.8903,VALID,185,VALID,0.294829,
2008-02-11, 03:30:00,VALID,916.615,VALID,0,VALID,100,VALID,-0.0339617,VALID,18.8966,VALID,185,VALID,0,
2008-02-11, 03:31:00,VALID,916.625,VALID,0,VALID,100,VALID,-0.0509425,VALID,18.8966,VALID,185,VALID,0,
2008-02-11, 03:32:00,VALID,916.629,VALID,0,VALID,100,VALID,-0.0339617,VALID,18.8905,VALID,185,VALID,0,
2008-02-11, 03:33:00,VALID,916.628,VALID,0,VALID,100,VALID,-0.0509425,VALID,18.8868,VALID,185,VALID,0,
2008-02-11, 03:34:00,VALID,916.63,VALID,0,VALID,100,VALID,-0.0849042,VALID,18.8905,VALID,185,VALID,0,
2008-02-11, 03:35:00,VALID,916.623,VALID,0,VALID,100,VALID,-0.0679233,VALID,18.8873,VALID,180,VALID,0,
2008-02-11, 03:36:00,VALID,916.626,VALID,0,VALID,100,VALID,-0.101885,VALID,18.8908,VALID,153,VALID,0,
2008-02-11, 03:37:00,VALID,916.627,VALID,0,VALID,100,VALID,-0.0849042,VALID,18.8778,VALID,153,VALID,0,
2008-02-11, 03:38:00,VALID,916.621,VALID,0,VALID,100,VALID,-0.0849042,VALID,18.8778,VALID,158,VALID,0,
2008-02-11, 03:39:00,VALID,916.621,VALID,0,VALID,100,VALID,-0.0849042,VALID,18.8781,VALID,158,VALID,0,
2008-02-11, 03:40:00,VALID,916.616,VALID,0,VALID,100,VALID,-0.0679233,VALID,18.8978,VALID,167,VALID,0,
2008-02-11, 03:41:00,VALID,916.62,VALID,0,VALID,100,VALID,-0.0849042,VALID,18.8975,VALID,170,VALID,0,
2008-02-11, 03:42:00,VALID,916.604,VALID,0,VALID,100,VALID,-0.0849042,VALID,18.9135,VALID,173,VALID,0,
2008-02-11, 03:43:00,VALID,916.605,VALID,0,VALID,100,VALID,0.0169808,VALID,18.9118,VALID,166,VALID,0,
2008-02-11, 03:44:00,VALID,916.588,VALID,0,VALID,100,VALID,0,VALID,18.928,VALID,163,VALID,0,
2008-02-11, 03:45:00,VALID,916.581,VALID,0,VALID,100,VALID,0.0339617,VALID,18.9318,VALID,156,VALID,0,
2008-02-11, 03:46:00,VALID,916.569,VALID,0,VALID,100,VALID,0.0509425,VALID,18.9445,VALID,132,VALID,0,
2008-02-11, 03:47:00,VALID,916.562,VALID,0,VALID,100,VALID,0.0339617,VALID,18.935,VALID,137,VALID,0,
2008-02-11, 03:48:00,VALID,916.555,VALID,0,VALID,100,VALID,0,VALID,18.9086,VALID,136,VALID,0,
2008-02-11, 03:49:00,VALID,916.54,VALID,0,VALID,100,VALID,0,VALID,18.8958,VALID,136,VALID,0,